Regional Weather Roundup
Issued by NWS

Home | Current Version | Previous Version | Graphics & Text | Print | Product List | Glossary On
Versions: 1 2 3 4 5 6 7 8 9 10 11 12 13 14 15 16 17 18 19 20 21 22 23 24 25 26 27 28 29 30 31 32 33 34 35 36 37 38 39 40 41 42 43 44 45 46 47 48 49 50
000
ASUS43 KOAX 312302
RWRNE

WEATHER ROUNDUP FOR NEBRASKA
NATIONAL WEATHER SERVICE OMAHA NE
600 PM CDT MON AUG 31 2015

NOTES: SATELLITE DATA IS BEING USED TO AUGMENT CLOUD COVER ABOVE
       12000 FEET.
       "FAIR" INDICATES FEW OR NO CLOUDS BELOW 12,000 FEET WITH NO
       SIGNIFICANT WEATHER AND/OR OBSTRUCTIONS TO VISIBILITY.

  * THESE STATIONS DO NOT REPORT WEATHER SUCH AS RAIN...SNOW OR FOG.

NEZ001>004-019>022-054>056-010000-
NEBRASKA PANHANDLE

CITY           SKY/WX    TMP DP  RH WIND       PRES   REMARKS
SCOTTSBLUFF    MOSUNNY   84  52  33 SE12      29.98S
ALLIANCE       PTSUNNY   85  49  28 E8        29.99S
CHADRON        MOSUNNY   82  53  36 E6        29.94F
KIMBALL        MOSUNNY   82  47  29 CALM      30.03S
SIDNEY         PTSUNNY   85  48  27 E13       30.02F
$$

NEZ057>060-069>072-079>082-010000-
SOUTHWEST NEBRASKA

CITY           SKY/WX    TMP DP  RH WIND       PRES   REMARKS
NORTH PLATTE   SUNNY     89  65  44 SE6       29.90S HX  91
IMPERIAL       MOSUNNY   91  56  30 N9        29.92F
LEXINGTON      SUNNY     90  65  43 SE13G18   29.89F HX  91
MCCOOK         SUNNY     97  52  21 SE9       29.86F HX  94
$$

NEZ005>010-023>029-035>040-094-010000-
NORTH CENTRAL NEBRASKA

CITY           SKY/WX    TMP DP  RH WIND       PRES   REMARKS
VALENTINE      PTSUNNY   76  60  57 N8        29.95R
AINSWORTH      PTSUNNY   81  63  55 NE6       29.94F
BROKEN BOW     MOSUNNY   90  64  42 SW5       29.90S HX  91
ORD            SUNNY     89  64  43 S10       29.88R HX  90
$$

NEZ041-046>049-061>064-073>077-083>087-010000-
SOUTH CENTRAL NEBRASKA

CITY           SKY/WX    TMP DP  RH WIND       PRES   REMARKS
GRAND ISLAND   SUNNY     88  67  49 SE10      29.90S HX  91
AURORA         SUNNY     86  67  53 SE12      29.89F
HASTINGS       SUNNY     90  65  43 S10       29.89F HX  92
HEBRON         SUNNY     89  62  40 SE12      29.89S
HOLDREGE       SUNNY     90  61  37 SE10      29.90S
KEARNEY *      SUNNY     90  64  43 S8        29.90S HX  91
YORK           SUNNY     86  68  54 S6        29.90F
$$

NEZ011>018-030>034-042>045-010000-
NORTHEAST NEBRASKA

CITY           SKY/WX    TMP DP  RH WIND       PRES   REMARKS
NORFOLK        SUNNY     84  69  60 S10       29.90R
ALBION         SUNNY     84  68  58 S8        29.91R
BLAIR          MOSUNNY   82  67  60 S8        29.92S
COLUMBUS *     SUNNY     84  68  58 SE5       29.89S
FREMONT        SUNNY     84  67  57 SE8       29.90F
TEKAMAH        SUNNY     83  70  64 S7        29.90R
WAYNE          SUNNY     82  69  64 S10       29.90S
$$

NEZ050>053-065>068-078-088>093-010000-
SOUTHEAST NEBRASKA

CITY           SKY/WX    TMP DP  RH WIND       PRES   REMARKS
LINCOLN        SUNNY     87  70  56 S13       29.90S HX  92
OMAHA EPPLEY   MOSUNNY   85  66  53 S12       29.91S
BEATRICE       SUNNY     87  69  53 SE8       29.90S HX  91
FALLS CITY     SUNNY     89  69  51 S8        29.91S HX  93
NEBRASKA CITY  MOSUNNY   85  63  48 SE6       29.92S
PLATTSMOUTH    MOSUNNY   83  67  59 SE7       29.91S
$$

NEZ044-045-051>053-067-010000-
OMAHA AREA

CITY           SKY/WX    TMP DP  RH WIND       PRES   REMARKS
OMAHA EPPLEY   MOSUNNY   85  66  53 S12       29.91S
BLAIR          MOSUNNY   82  67  60 S8        29.92S
FREMONT        SUNNY     84  67  57 SE8       29.90F
OFFUTT AFB     MOSUNNY   84  68  57 SE9       29.90S
PLATTSMOUTH    MOSUNNY   83  67  59 SE7       29.91S
WAHOO          FAIR      84  71  65 SE8       29.89F
$$




USA.gov is the U.S. government's official web portal to all federal, state and local government web resources and services.